Simultaneous Nadir Overpasses (SNOs) Predictions

Prediction of SNOs near equator between AQUA and NPP Satellite Orbit:

Table of predicted SNOs near equator for the next 14.0 days since TLE Epoch: 12/29/2014
Index Date (AQUA) Time (AQUA) AQUA Lat,Lon Date (NPP) Time (NPP) NPP Lat,Lon Distance(km) Time Diff (sec)
1 12/31/2014 12:25:38 -29.96,-167.20 12/31/2014 12:17:10 -30.14,-166.25 92.85 508
2 12/31/2014 13:15:08 29.94, 0.43 12/31/2014 13:07:58 30.09, 1.05 62.26 430
3 12/31/2014 14:04:31 -29.96, 168.08 12/31/2014 13:58:38 -30.03, 168.40 31.65 353
4 12/31/2014 14:53:56 29.64, -24.21 12/31/2014 14:49:20 29.64, -24.20 1.52 276
5 12/31/2014 15:35:18 -0.67, 150.04 12/31/2014 15:31:47 -0.67, 150.05 0.59 211
6 12/31/2014 16:18:44 -21.35, -37.50 12/31/2014 16:16:21 -21.36, -37.59 9.21 143
7 12/31/2014 17:06:51 25.89, 131.25 12/31/2014 17:05:43 25.98, 130.91 35.58 68
8 12/31/2014 17:55:15 -29.88, -60.11 12/31/2014 17:55:23 -29.99, -60.72 60.10 8
9 12/31/2014 18:44:37 29.92, 107.56 12/31/2014 18:46:02 30.12, 106.64 90.67 85
10 01/03/2015 04:42:04 -29.94, -51.30 01/03/2015 04:33:59 -30.11, -50.47 82.14 485
11 01/03/2015 05:31:35 29.99, 116.31 01/03/2015 05:24:48 30.12, 116.82 51.51 407
12 01/03/2015 06:20:58 -30.00, -76.04 01/03/2015 06:15:28 -30.06, -75.83 20.97 330
13 01/03/2015 07:07:52 20.59, 93.90 01/03/2015 07:03:35 20.59, 93.91 0.90 257
14 01/03/2015 07:48:37 10.65, -91.64 01/03/2015 07:45:24 10.65, -91.64 0.59 193
15 01/03/2015 08:34:48 -22.69, 78.71 01/03/2015 08:32:47 -22.73, 78.53 18.98 121
16 01/03/2015 09:22:54 27.29,-112.51 01/03/2015 09:22:09 27.35,-112.95 44.58 45
17 01/03/2015 10:11:41 -29.90, 55.78 01/03/2015 10:12:12 -30.02, 55.06 70.88 31
18 01/05/2015 20:58:31 -29.96, 64.59 01/05/2015 20:50:49 -30.09, 65.31 71.20 462
19 01/05/2015 21:48:01 29.95,-127.79 01/05/2015 21:41:37 30.05,-127.38 40.51 384
20 01/05/2015 22:37:24 -29.96, 39.87 01/05/2015 22:32:17 -29.99, 39.97 9.93 307
21 01/05/2015 23:21:28 10.30,-147.89 01/05/2015 23:17:30 10.30,-147.89 0.22 238
22 01/06/2015 00:02:47 18.89, 26.09 01/05/2015 23:59:54 18.89, 26.07 2.60 173
23 01/06/2015 00:50:51 -24.11,-165.06 01/06/2015 00:49:13 -24.16,-165.33 28.75 98
24 01/06/2015 01:38:59 28.59, 3.72 01/06/2015 01:38:36 28.72, 3.19 53.54 23
25 01/06/2015 02:28:07 -29.93, 171.69 01/06/2015 02:29:01 -30.10, 170.86 81.72 54
26 01/08/2015 12:25:34 29.96, 12.83 01/08/2015 12:16:59 30.14, 13.75 90.51 515
27 01/08/2015 13:14:57 -29.97,-179.52 01/08/2015 13:07:39 -30.08,-178.91 60.00 438
28 01/08/2015 14:04:27 29.96, -11.89 01/08/2015 13:58:27 30.04, -11.60 29.35 360
29 01/08/2015 14:53:20 -28.17, 156.23 01/08/2015 14:48:36 -28.17, 156.24 0.97 284
30 01/08/2015 15:34:44 -1.18, -29.54 01/08/2015 15:31:05 -1.18, -29.54 0.08 219
31 01/08/2015 16:18:39 20.93, 142.46 01/08/2015 16:16:09 20.95, 142.35 12.19 150
32 01/08/2015 17:06:54 -25.48, -48.82 01/08/2015 17:05:39 -25.57, -49.19 38.49 75
33 01/08/2015 17:55:02 29.96, 119.97 01/08/2015 17:55:02 30.13, 119.35 62.44 0
34 01/08/2015 18:44:33 -29.93, -72.42 01/08/2015 18:45:51 -30.11, -73.36 92.94 78
35 01/11/2015 04:41:59 29.95, 128.73 01/11/2015 04:33:49 30.14, 129.53 79.18 490
36 01/11/2015 05:31:22 -29.95, -63.61 01/11/2015 05:24:29 -30.07, -63.13 48.68 413
37 01/11/2015 06:20:52 29.95, 104.01 01/11/2015 06:15:16 29.97, 104.20 17.94 336
38 01/11/2015 07:06:52 -17.75, -85.37 01/11/2015 07:02:28 -17.75, -85.36 1.04 264
39 01/11/2015 07:47:40 -13.81, 89.09 01/11/2015 07:44:20 -13.81, 89.10 0.83 200
40 01/11/2015 08:34:40 22.39,-101.29 01/11/2015 08:32:34 22.42,-101.51 22.67 126
41 01/11/2015 09:22:55 -26.94, 67.44 01/11/2015 09:22:04 -27.04, 66.97 48.04 51
42 01/11/2015 10:11:28 29.92,-124.14 01/11/2015 10:11:53 30.08,-124.89 73.79 25




NCC Satellite Simultaneous Nadir Overpasses (SNOs) Prediction Service
